Denali Park, AK

10:46 AM AKDT on March 27, 2017 (GMT -0800)
McKinley National Park

Weather History for PAIN - November, 2012

Change the Weather History Date:

Saturday, November 10, 2012

  Actual Average Record
Temperature  
Mean Temperature 24 °F -  
Max Temperature 33 °F 20 °F 47 °F (1981)
Min Temperature 15 °F 3 °F -30 °F (1989)
Degree Days  
Heating Degree Days 41    
Moisture  
Dew Point 23 °F    
Average Humidity 86    
Maximum Humidity 100    
Minimum Humidity 70    
Precipitation  
Precipitation 0.00 in - - ()
Sea Level Pressure  
Sea Level Pressure 29.59 in    
Wind  
Wind Speed 1 mph (North)    
Max Wind Speed 5 mph    
Max Gust Speed -    
Visibility 8 miles    
Events      
Averages and records for this station are not official NWS values.
T = Trace of Precipitation, MM = Missing Value Source: NWS Daily Summary

Daily Weather History Graph

Daily Weather History Graph

Search for Another Location

Airport or City:

Trip Planner

Search our weather history database for the weather conditions in past years. The results will help you decide how hot, cold, wet, or windy it might be!

Date:

Astronomy

Nov. 10, 2012 Rise Set
Actual Time 9:07 AM AKST 4:11 PM AKST
Civil Twilight 8:10 AM AKST 5:07 PM AKST
Nautical Twilight 7:12 AM AKST 6:05 PM AKST
Astronomical Twilight 6:17 AM AKST 7:00 PM AKST
Moon 4:16 AM AKST (11/10) 3:00 PM AKST (11/10)
Length of Visible Light 8h 56m
Length of Day
7h 03m
Waning Crescent, 13% of the Moon is Illuminated
Nov 10
Waning Crescent
Nov 13
New
Nov 20
First Quarter
Nov 28
Full
Dec 6
Last Quarter

Hourly Weather History & Observations

Time (AKST) Temp. Windchill Dew Point Humidity Pressure Visibility Wind Dir Wind Speed Gust Speed Precip Events Conditions
12:16 AM 32.0 °F - 24.8 °F 75% 29.67 in 10.0 mi Calm Calm - N/A   Overcast
12:36 AM 32.0 °F - 24.8 °F 75% 29.66 in 10.0 mi Calm Calm - N/A   Overcast
12:56 AM 32.0 °F - 24.8 °F 75% 29.66 in 10.0 mi Calm Calm - N/A   Overcast
1:16 AM 32.0 °F 27.5 °F 24.8 °F 75% 29.66 in 10.0 mi SE 4.6 mph - N/A   Overcast
1:36 AM 33.8 °F 29.6 °F 24.8 °F 70% 29.65 in 10.0 mi SSE 4.6 mph - N/A   Overcast
1:56 AM 33.8 °F - 24.8 °F 70% 29.64 in 10.0 mi Calm Calm - N/A   Overcast
2:16 AM 33.8 °F - 24.8 °F 70% 29.64 in 10.0 mi Calm Calm - N/A   Overcast
2:36 AM 32.0 °F - 24.8 °F 75% 29.64 in 10.0 mi Calm Calm - N/A   Overcast
2:56 AM 32.0 °F - 24.8 °F 75% 29.64 in 10.0 mi Calm Calm - N/A   Overcast
3:16 AM 32.0 °F - 24.8 °F 75% 29.63 in 10.0 mi Calm Calm - N/A   Overcast
3:36 AM 32.0 °F - 24.8 °F 75% 29.63 in 10.0 mi Calm Calm - N/A   Overcast
3:56 AM 32.0 °F - 24.8 °F 75% 29.63 in 10.0 mi Calm Calm - N/A   Overcast
4:16 AM 32.0 °F 28.7 °F 24.8 °F 75% 29.62 in 10.0 mi SSE 3.5 mph - N/A   Overcast
4:36 AM 32.0 °F - 24.8 °F 75% 29.62 in 10.0 mi Calm Calm - N/A   Overcast
4:56 AM 32.0 °F - 24.8 °F 75% 29.62 in 10.0 mi Calm Calm - N/A   Overcast
5:16 AM 32.0 °F - 24.8 °F 75% 29.61 in 10.0 mi Calm Calm - N/A   Overcast
5:36 AM 32.0 °F - 24.8 °F 75% 29.61 in 10.0 mi Calm Calm - N/A   Overcast
5:56 AM 32.0 °F - 24.8 °F 75% 29.61 in 10.0 mi Calm Calm - N/A   Overcast
6:36 AM 32.0 °F - 26.6 °F 80% 29.60 in 10.0 mi Calm Calm - N/A   Overcast
6:56 AM 30.2 °F - 26.6 °F 86% 29.60 in 10.0 mi Calm Calm - N/A   Overcast
7:16 AM 30.2 °F - 26.6 °F 86% 29.59 in 10.0 mi Calm Calm - N/A   Overcast
7:36 AM 30.2 °F - 26.6 °F 86% 29.59 in 10.0 mi Calm Calm - N/A   Overcast
7:56 AM 30.2 °F 26.7 °F 26.6 °F 86% 29.59 in 10.0 mi West 3.5 mph - N/A   Overcast
8:16 AM 30.2 °F - 26.6 °F 86% 29.59 in 10.0 mi Calm Calm - N/A   Overcast
8:36 AM 28.4 °F 24.6 °F 26.6 °F 93% 29.59 in 10.0 mi West 3.5 mph - N/A   Overcast
8:56 AM 28.4 °F - 26.6 °F 93% 29.59 in 10.0 mi Calm Calm - N/A   Overcast
9:16 AM 30.2 °F - 26.6 °F 86% 29.59 in 10.0 mi Calm Calm - N/A   Overcast
9:36 AM 30.2 °F - 26.6 °F 86% 29.58 in 10.0 mi Calm Calm - N/A   Overcast
9:56 AM 30.2 °F - 26.6 °F 86% 29.58 in 10.0 mi Calm Calm - N/A   Overcast
10:16 AM 30.2 °F - 26.6 °F 86% 29.58 in 10.0 mi Calm Calm - N/A   Overcast
10:36 AM 30.2 °F 26.7 °F 26.6 °F 86% 29.58 in 10.0 mi SSW 3.5 mph - N/A   Overcast
10:56 AM 30.2 °F 26.7 °F 26.6 °F 86% 29.58 in 8.0 mi SW 3.5 mph - N/A   Overcast
11:16 AM 30.2 °F - 28.4 °F 93% 29.58 in 10.0 mi Calm Calm - N/A   Overcast
11:36 AM 30.2 °F - 28.4 °F 93% 29.58 in 10.0 mi Calm Calm - N/A   Overcast
11:56 AM 30.2 °F - 28.4 °F 93% 29.58 in 10.0 mi Calm Calm - N/A   Overcast
12:16 PM 30.2 °F - 28.4 °F 93% 29.58 in 10.0 mi Calm Calm - N/A   Overcast
12:36 PM 30.2 °F - 28.4 °F 93% 29.58 in 10.0 mi Calm Calm - N/A   Overcast
12:56 PM 32.0 °F - 28.4 °F 87% 29.58 in 10.0 mi Calm Calm - N/A   Overcast
1:16 PM 32.0 °F - 28.4 °F 87% 29.57 in 10.0 mi Calm Calm - N/A   Overcast
1:36 PM 32.0 °F - 28.4 °F 87% 29.57 in 10.0 mi Calm Calm - N/A   Overcast
1:56 PM 32.0 °F - 28.4 °F 87% 29.57 in 10.0 mi Calm Calm - N/A   Overcast
2:16 PM 32.0 °F - 28.4 °F 87% 29.57 in 10.0 mi Calm Calm - N/A   Overcast
2:36 PM 32.0 °F - 28.4 °F 87% 29.57 in 10.0 mi Calm Calm - N/A   Overcast
2:56 PM 28.4 °F 24.6 °F 23.0 °F 80% 29.56 in 10.0 mi NNE 3.5 mph - N/A   Overcast
3:16 PM 24.8 °F 20.5 °F 19.4 °F 80% 29.56 in 10.0 mi NNE 3.5 mph - N/A   Overcast
3:36 PM 23.0 °F - 19.4 °F 86% 29.56 in 4.0 mi Calm Calm - N/A   Overcast
3:56 PM 21.2 °F - 19.4 °F 93% 29.56 in 2.5 mi Calm Calm - N/A   Overcast
4:16 PM 21.2 °F - 19.4 °F 93% 29.56 in 1.0 mi Calm Calm - N/A   Overcast
4:36 PM 23.0 °F - 19.4 °F 86% 29.56 in 3.0 mi Calm Calm - N/A   Overcast
4:56 PM 24.8 °F - 21.2 °F 86% 29.55 in 5.0 mi Calm Calm - N/A   Overcast
5:16 PM 24.8 °F - 21.2 °F 86% 29.56 in 4.0 mi Calm Calm - N/A   Overcast
5:36 PM 24.8 °F - 21.2 °F 86% 29.55 in 5.0 mi Calm Calm - N/A   Overcast
5:56 PM 23.0 °F - 21.2 °F 93% 29.56 in 3.0 mi Calm Calm - N/A   Overcast
6:16 PM 21.2 °F - 19.4 °F 93% 29.56 in 7.0 mi Calm Calm - N/A   Overcast
6:36 PM 21.2 °F 16.4 °F 19.4 °F 93% 29.56 in 10.0 mi North 3.5 mph - N/A   Overcast
7:16 PM 19.4 °F 14.3 °F 17.6 °F 93% 29.56 in 4.0 mi NNE 3.5 mph - N/A   Overcast
7:36 PM 19.4 °F - 17.6 °F 93% 29.56 in 3.0 mi Calm Calm - N/A   Overcast
7:56 PM 19.4 °F - 17.6 °F 93% 29.56 in 3.0 mi Calm Calm - N/A   Overcast
8:16 PM 17.6 °F 12.3 °F 15.8 °F 93% 29.56 in 4.0 mi North 3.5 mph - N/A   Overcast
8:36 PM 17.6 °F 10.7 °F 15.8 °F 93% 29.56 in 8.0 mi North 4.6 mph - N/A   Overcast
8:56 PM 17.6 °F 10.7 °F 15.8 °F 93% 29.56 in 5.0 mi North 4.6 mph - N/A   Overcast
9:16 PM 17.6 °F 10.7 °F 15.8 °F 93% 29.56 in 5.0 mi North 4.6 mph - N/A   Overcast
9:36 PM 17.6 °F 12.3 °F 15.8 °F 93% 29.56 in 8.0 mi North 3.5 mph - N/A   Overcast
9:56 PM 15.8 °F 10.2 °F 15.8 °F 100% 29.57 in 6.0 mi North 3.5 mph - N/A   Overcast
10:16 PM 17.6 °F 12.3 °F 15.8 °F 93% 29.57 in 3.0 mi North 3.5 mph - N/A   Overcast
10:36 PM 15.8 °F 10.2 °F 15.8 °F 100% 29.57 in 3.0 mi North 3.5 mph - N/A   Overcast
10:56 PM 15.8 °F 8.6 °F 15.8 °F 100% 29.58 in 3.0 mi North 4.6 mph - N/A   Overcast
11:16 PM 15.8 °F 10.2 °F 15.8 °F 100% 29.58 in 2.5 mi North 3.5 mph - N/A   Overcast
11:36 PM 15.8 °F 10.2 °F 15.8 °F 100% 29.58 in 4.0 mi North 3.5 mph - N/A   Overcast
11:56 PM 15.8 °F 8.6 °F 14.0 °F 93% 29.58 in 4.0 mi North 4.6 mph - N/A   Overcast